User: anonymous   Login
Location: Civís
(42.4648°N, 1.4232°E)
Time: 02:59:16
(UTC+00:00)
Language:

Meteor 2-3 Rocket - Orbit

View from above orbital plane
View from above orbital plane
View from above satellite
View from above satellite

Ground track
Ground track

The orbit is defined by the following mean orbital elements,

1 10515U          26132.56907740 +.00000000 +00000-0 -12364-4 0 00008
2 10515  81.2464   0.0516 0024281  74.1472 286.2373 14.09114759    05
Epoch (UTC): 12 May 2026 13:39:28
Eccentricity: 0.0024281
inclination: 81.2464°
perigee height: 845 km
apogee height: 880 km
right ascension of ascending node: 0.0516°
argument of perigee: 74.1472°
revolutions per day: 14.09114759
mean anomaly at epoch: 286.2373°

The dashed part of the orbit path shows where the satellite is in the earth's shadow,  

DLR